Miami, FL

2:27 PM EDT on October 21, 2017 (GMT -0400)
Miami International

Weather History for KMIA - September, 2013

Change the Weather History Date:

Friday, September 20, 2013

  Actual Average Record
Temperature  
Mean Temperature 82 °F 83 °F  
Max Temperature 88 °F 89 °F 94 °F (1987)
Min Temperature 76 °F 77 °F 69 °F (1907)
Degree Days  
Heating Degree Days 0 0  
Month to date heating degree days 0 0  
Since 1 July heating degree days 0 0  
Cooling Degree Days 17 18  
Month to date cooling degree days 360 362  
Year to date cooling degree days 3497 3437  
Growing Degree Days 30 (Base 50)    
Moisture  
Dew Point 71 °F    
Average Humidity 70    
Maximum Humidity 91    
Minimum Humidity 48    
Precipitation  
Precipitation 0.08 in 0.35 in 3.74 in (1963)
Month to date precipitation 7.87 6.59  
Year to date precipitation 50.55 46.99  
Snow  
Snow 0.00 in - - ()
Month to date snowfall 0.0  
Since 1 July snowfall 0.0  
Since 1 September snowfall 0.0  
Snow Depth 0.00 in    
Sea Level Pressure  
Sea Level Pressure 29.96 in    
Wind  
Wind Speed 6 mph (NE)    
Max Wind Speed 18 mph    
Max Gust Speed 22 mph    
Visibility 10 miles    
Events Rain    
T = Trace of Precipitation, MM = Missing Value Source: NWS Daily Summary

Daily Weather History Graph

Daily Weather History Graph

Search for Another Location

Airport or City:

Trip Planner

Search our weather history database for the weather conditions in past years. The results will help you decide how hot, cold, wet, or windy it might be!

Date:

Astronomy

Sep. 20, 2013 Rise Set
Actual Time 7:09 AM EDT 7:19 PM EDT
Civil Twilight 6:46 AM EDT 7:42 PM EDT
Nautical Twilight 6:19 AM EDT 8:09 PM EDT
Astronomical Twilight 5:52 AM EDT 8:36 PM EDT
Moon 8:06 PM EDT (9/20) 8:10 AM EDT (9/20)
Length of Visible Light 12h 56m
Length of Day
12h 10m
Full, 98% of the Moon is Illuminated
Sep 20
Full
Sep 26
Last Quarter
Oct 4
New
Oct 11
First Quarter
Oct 18
Full

Hourly Weather History & Observations

Time (EDT) Temp. Heat Index Dew Point Humidity Pressure Visibility Wind Dir Wind Speed Gust Speed Precip Events Conditions
12:06 AM 77.0 °F - 73.4 °F 89% 29.99 in 6.0 mi East 4.6 mph - 0.19 in Rain Light Rain
12:53 AM 78.1 °F - 75.9 °F 93% 29.99 in 10.0 mi NW 3.5 mph - 0.19 in   Overcast
1:53 AM 78.1 °F - 75.0 °F 90% 29.99 in 10.0 mi North 3.5 mph - N/A   Mostly Cloudy
2:53 AM 78.1 °F - 75.0 °F 90% 29.96 in 10.0 mi Calm Calm - N/A   Mostly Cloudy
3:53 AM 78.1 °F - 73.9 °F 87% 29.96 in 10.0 mi Calm Calm - N/A   Mostly Cloudy
4:53 AM 77.0 °F - 73.0 °F 88% 29.98 in 10.0 mi Calm Calm - N/A   Mostly Cloudy
5:53 AM 77.0 °F - 73.0 °F 88% 29.97 in 10.0 mi North 3.5 mph - N/A   Mostly Cloudy
6:53 AM 78.1 °F - 71.1 °F 79% 29.96 in 10.0 mi North 5.8 mph - N/A   Scattered Clouds
7:53 AM 78.1 °F - 71.1 °F 79% 29.97 in 10.0 mi NE 3.5 mph - N/A   Scattered Clouds
8:53 AM 81.0 °F 84.4 °F 70.0 °F 69% 29.99 in 10.0 mi NE 6.9 mph - N/A   Scattered Clouds
9:53 AM 84.0 °F 87.8 °F 69.1 °F 61% 30.00 in 10.0 mi NE 9.2 mph - N/A   Scattered Clouds
10:53 AM 84.9 °F 88.8 °F 69.1 °F 59% 30.01 in 10.0 mi ENE 10.4 mph - N/A   Scattered Clouds
11:53 AM 86.0 °F 90.1 °F 69.1 °F 57% 30.01 in 10.0 mi NE 8.1 mph - N/A   Mostly Cloudy
12:53 PM 86.0 °F 90.1 °F 69.1 °F 57% 29.99 in 10.0 mi ENE 5.8 mph - N/A   Mostly Cloudy
1:53 PM 84.9 °F 89.4 °F 70.0 °F 61% 29.96 in 10.0 mi ENE 9.2 mph 18.4 mph N/A   Mostly Cloudy
2:53 PM 84.9 °F 88.8 °F 69.1 °F 59% 29.94 in 10.0 mi East 13.8 mph 21.9 mph N/A   Mostly Cloudy
3:53 PM 86.0 °F 87.6 °F 64.9 °F 49% 29.93 in 10.0 mi NNE 11.5 mph - N/A   Scattered Clouds
4:53 PM 86.0 °F 88.8 °F 66.9 °F 53% 29.92 in 10.0 mi ENE 13.8 mph 18.4 mph N/A   Scattered Clouds
5:53 PM 84.9 °F 88.2 °F 68.0 °F 57% 29.91 in 10.0 mi NE 10.4 mph - N/A   Scattered Clouds
6:53 PM 82.9 °F 85.4 °F 66.9 °F 58% 29.91 in 10.0 mi NE 8.1 mph - N/A   Scattered Clouds
7:53 PM 82.0 °F 85.5 °F 69.1 °F 65% 29.92 in 10.0 mi NE 5.8 mph - N/A   Scattered Clouds
8:53 PM 81.0 °F 84.4 °F 70.0 °F 69% 29.92 in 10.0 mi NNE 5.8 mph - N/A   Scattered Clouds
9:53 PM 78.1 °F - 72.0 °F 81% 29.94 in 7.0 mi Calm Calm - 0.08 in Rain Light Rain
10:07 PM 78.8 °F - 73.4 °F 83% 29.94 in 10.0 mi NNE 4.6 mph - 0.00 in   Overcast
10:53 PM 77.0 °F - 73.9 °F 90% 29.94 in 10.0 mi NNW 4.6 mph - 0.00 in Rain Light Rain
11:01 PM 77.0 °F - 73.4 °F 89% 29.93 in 10.0 mi Variable 3.5 mph - 0.00 in   Mostly Cloudy
11:53 PM 78.1 °F - 73.9 °F 87% 29.92 in 10.0 mi North 5.8 mph - 0.00 in   Scattered Clouds